Regional Weather Roundup
Issued by NWS

Home | Current Version | Previous Version | Graphics & Text | Print | Product List | Glossary On
Versions: 1 2 3 4 5 6 7 8 9 10 11 12 13 14 15 16 17 18 19 20 21 22 23 24 25 26 27 28 29 30 31 32 33 34 35 36 37 38 39 40 41 42 43 44 45 46 47 48 49 50
441
ASUS43 KIND 290909
RWRIN

WEATHER ROUNDUP FOR INDIANA
NATIONAL WEATHER SERVICE INDIANAPOLIS IN
500 AM EDT MON MAY 29 2017

NOTE: "FAIR" INDICATES FEW OR NO CLOUDS BELOW 12,000 FEET WITH NO
SIGNIFICANT WEATHER AND/OR OBSTRUCTIONS TO VISIBILITY.

* - STATION DOES NOT REPORT WEATHER SUCH AS PRECIPITATION OR FOG.

+ - STATION NOT QUALITY CONTROLLED BY THE NATIONAL WEATHER SERVICE.
    USE DATA WITH CAUTION...ESPECIALLY DEWPOINT AND RELATIVE
    HUMIDITY OBSERVATIONS.

INZ001>003-010>013-019-020-291000-
NORTHWEST INDIANA

CITY           SKY/WX    TMP DP  RH WIND       PRES   REMARKS
GARY /AIRPORT/ MOCLDY    63  49  60 CALM      29.79S
KNOX *+        CLEAR     55  43  62 SW6       29.80R
LA PORTE +     PTCLDY    58  52  79 SW7       29.79S
MICHIGAN CITY+ PTCLDY    54  54 100 CALM      29.78S
MONTICELLO +   PTCLDY    58  54  85 SW8       29.80S
RENSSELAER +   CLOUDY    61  54  77 W5        29.82S
VALPARAISO     PTCLDY    60  53  77 SW9       29.79R

$$

LMZ046-743>745-291000-
SOUTHERN LAKE MICHIGAN

STATION/POSITION TIME  TEMP    WIND        PRES    WAVE
                       AIR SEA DIR/SP/G            HT
                 (UTC) (F)     (DEG/KT/KT) (MB)    (FT)
BURNS HARBOR     0830   62     200/ 11/ 13 1009.1R
MICHIGAN CITY    0840   62     190/  8/  9   N/A
5NW MICH CITY    0900   59 57  220/  8/ 12   N/A     1

$$

INZ004-005-014>016-021>024-291000-
NORTH CENTRAL INDIANA

CITY           SKY/WX    TMP DP  RH WIND       PRES   REMARKS
GOSHEN         PTCLDY    56  52  86 SW6       29.79R
LOGANSPORT +   PTCLDY    57  54  88 SW9       29.83R
PERU/GRISSOM   CLEAR     55  55 100 SW7       29.81S
ROCHESTER +    CLEAR     61  54  77 SW3       29.81S
SOUTH BEND     CLEAR     56  53  90 CALM      29.79R
WARSAW +       CLEAR     55  54  94 CALM      29.80S

$$

INZ006>009-017-018-025>027-291000-
NORTHEAST INDIANA

CITY           SKY/WX    TMP DP  RH WIND       PRES   REMARKS
ANGOLA *+      CLEAR     57  48  72 CALM      29.79R
AUBURN +       CLEAR     57  55  94 SW3       29.81R
FORT WAYNE     PTCLDY    59  55  87 SW8       29.81R
HUNTINGTON +   CLEAR     56  55  96 CALM      29.81
KENDALLVILLE + CLEAR     57  54  91 W5        29.80R

$$

INZ028-029-035-036-043>045-051>053-291000-
WEST CENTRAL INDIANA

CITY           SKY/WX    TMP DP  RH WIND       PRES   REMARKS
CRAWFORDSVL +  CLEAR    -22 -22 100 SW6       29.84F WCI -37
GREENCASTLE +  CLEAR     54  54 100 CALM      29.86S
LAFAYETTE      CLOUDY    56  55  97 W5        29.82S
TERRE HAUTE    CLEAR     59  53  80 SW5       29.86S

$$

INZ030>032-037>040-046>048-054>057-064-065-291000-
CENTRAL INDIANA

CITY           SKY/WX    TMP DP  RH WIND       PRES   REMARKS
CP ATTERBURY + CLOUDY    59  55  88 SW3       29.87S
FISHERS *+     PTCLDY    55  55 100 CALM      29.85S
FRANKFORT +    MOCLDY    60  56  84 SW6       29.85S
GREENWOOD *+   PTCLDY    60  57  91 CALM      29.86S
INDIANAPOLIS   PTCLDY    57  55  93 SW7       29.85R
-EAGLE CREEK   CLEAR     59  54  83 S3        29.84S
KOKOMO +       PTCLDY    58  55  90 SW8       29.83S
MARION +       CLEAR     57  54  88 SW7       29.84R
MT COMFORT *+    N/A    N/A N/A N/A MISG        N/A
SHELBYVILLE    CLEAR     60  57  89 SW5       29.85R FOG
ZIONSVILLE +   CLEAR     57  53  85 SW6       29.85S

$$

INZ033-034-041-042-049-050-058-059-291000-
EAST CENTRAL INDIANA

CITY           SKY/WX    TMP DP  RH WIND       PRES   REMARKS
MUNCIE         CLEAR     61  58  90 SW7       29.84R
RICHMOND +     CLEAR     59  57  94 SW6       29.86S FOG

$$

INZ060-061-067>069-081>083-085>088-291000-
SOUTHWEST INDIANA

CITY           SKY/WX    TMP DP  RH WIND       PRES   REMARKS
EVANSVILLE     MOCLDY    63  60  90 SW5       29.92R
HUNTINGBURG *+ CLOUDY    63  63 100 S6        29.92R FOG
WASHINGTON +   PTCLDY    63  57  81 SW8       29.89R

$$

INZ062-063-066-070>080-084-089>092-291000-
SOUTH CENTRAL AND SOUTHEAST INDIANA

CITY           SKY/WX    TMP DP  RH WIND       PRES   REMARKS
BEDFORD +      CLOUDY    59  57  94 S3        29.89R
BLOOMINGTON    CLOUDY    61  56  83 SW7       29.88R
MADISON *+     CLOUDY    61  61 100 CALM      29.91R VSB 3/4
NORTH VERNON + CLOUDY    61  59  94 S5        29.89R FOG
SEYMOUR +      CLOUDY    63  63 100 SW6       29.88R

$$





USA.gov is the U.S. government's official web portal to all federal, state and local government web resources and services.